RH
85 83 85 88 88 89 93 90 82 76 77 78 69 67 76 78 77 76 72 69 69 71 70 68 66 63 62 60 60 60 63 71 76 75 72 67 65 66 64 63 67 75 83 84 87 91 90 88 87 91 93 92 92 89 89 91 91 89 80 71 61 47 35 25 18 18 20 25 29 42 60 65 59 55 60 73 84 87 87 80 79 90 93 91 92
88 86 87 91 90 89 95 99 93 88 87 87 79 74 77 79 78 76 74 74 73 73 71 70 66 62 61 60 59 58 61 69 73 75 74 69 67 68 65 61 64 71 79 86 90 93 92 88 87 89 91 92 92 90 87 88 91 91 85 79 74 62 48 36 25 20 19 16 16 21 31 34 34 34 34 47 64 76 80 68 64 80 87 88 92
94 94 91 91 93 91 95 100 99 97 95 92 88 84 83 81 79 76 75 75 74 74 72 71 66 60 59 59 58 57 60 68 72 72 74 73 69 70 67 61 61 67 77 84 85 92 91 89 91 89 90 92 91 91 89 89 90 91 90 88 88 77 61 48 37 28 20 15 13 12 16 19 23 28 27 32 46 59 66 61 60 72 79 82 90
95 97 95 92 93 92 93 96 98 97 94 91 90 89 87 84 81 78 76 76 74 74 72 69 64 60 58 57 57 56 57 64 72 73 73 74 72 71 69 64 63 64 72 78 79 88 89 89 94 91 90 90 91 93 91 90 90 91 93 94 97 90 73 59 49 39 27 20 15 11 15 20 25 36 38 36 41 46 52 59 63 69 78 85 88
94 94 93 91 91 90 90 91 93 94 93 92 90 90 89 87 84 81 78 76 74 75 73 69 65 63 60 59 60 57 55 57 65 72 73 74 73 72 70 67 66 64 68 74 75 82 85 87 94 92 87 86 89 94 90 89 90 90 92 92 96 95 83 70 63 55 42 27 18 17 25 28 31 39 40 39 44 45 47 57 59 57 72 88 90
95 92 91 91 90 87 87 89 92 92 92 93 92 90 90 91 90 87 82 78 77 76 74 71 68 64 61 64 65 60 57 55 56 63 69 74 74 73 73 69 67 66 66 72 75 80 82 83 91 91 87 87 88 91 90 90 89 87 91 91 89 92 90 82 76 67 59 44 26 25 33 35 34 33 34 39 42 37 36 45 47 46 56 70 81
96 94 92 92 90 85 85 88 90 92 91 91 92 91 90 91 93 91 86 81 77 75 73 71 68 64 60 64 67 65 61 57 55 56 61 70 74 74 75 72 69 68 67 72 75 80 83 83 87 87 88 90 85 83 87 88 88 85 89 91 86 88 91 90 87 78 70 57 41 35 32 33 36 36 35 33 30 25 24 30 33 36 38 44 61
97 96 95 93 89 85 86 88 90 91 91 90 92 93 91 90 91 92 89 83 79 77 73 69 65 62 61 63 66 69 66 61 58 57 61 70 74 74 75 74 71 69 68 70 73 79 84 85 85 83 85 91 86 82 81 79 84 85 87 92 90 88 90 91 91 84 78 66 55 48 37 31 33 34 31 24 24 22 16 17 18 20 23 28 44
97 96 97 95 90 88 88 91 92 92 91 92 93 94 91 89 90 93 92 87 83 81 76 69 64 59 59 63 66 69 69 66 62 59 64 73 77 76 75 75 74 71 68 68 69 73 79 83 85 83 81 85 86 87 86 84 87 86 84 90 94 93 89 90 91 86 84 77 69 63 52 42 32 27 25 19 19 19 13 13 12 14 17 22 33
93 94 97 97 95 93 92 95 96 92 91 93 94 93 90 90 94 96 96 92 87 86 79 71 68 61 57 62 67 70 70 70 67 63 63 70 77 78 77 76 75 73 71 68 67 67 71 76 80 84 81 81 84 85 89 93 92 90 86 84 91 95 87 86 92 88 85 84 81 77 68 56 42 34 29 22 18 16 16 16 12 12 14 19 27
87 91 94 95 95 95 94 94 95 93 92 93 91 90 89 93 96 97 99 97 92 89 82 75 75 71 64 64 66 68 70 71 71 68 66 71 77 79 78 78 77 76 75 72 69 66 67 68 71 77 80 81 84 83 85 92 94 94 91 86 86 92 89 82 86 89 90 90 86 84 81 68 53 46 40 33 27 19 19 19 14 13 13 16 22
81 86 88 88 87 88 89 92 94 94 93 93 90 89 92 97 97 97 99 99 97 92 87 83 82 80 77 71 66 66 67 69 72 71 70 72 75 77 76 76 75 74 74 74 73 70 68 67 66 67 72 79 84 85 83 86 93 93 93 92 85 88 92 83 79 84 88 94 92 86 88 78 58 53 54 50 43 33 27 22 15 15 15 15 18
71 76 80 80 81 83 84 90 95 95 95 97 96 95 98 100 100 100 100 100 100 96 91 89 87 86 84 79 75 71 65 62 65 69 72 72 73 74 72 71 71 70 72 73 74 74 72 71 68 65 65 70 79 84 84 82 86 91 95 95 86 84 89 88 85 80 75 84 92 89 88 85 72 66 67 64 58 52 45 37 27 20 18 14 12
62 66 74 76 77 79 82 89 94 96 98 100 100 100 100 101 100 101 100 100 100 98 93 90 90 88 87 88 87 80 73 67 63 65 68 69 72 72 69 69 69 66 68 72 73 73 74 74 72 69 67 67 70 75 78 77 78 85 92 93 89 86 85 87 91 87 77 74 80 87 86 82 81 79 78 77 72 67 61 54 45 36 30 21 13
60 64 70 72 73 73 78 86 91 93 95 96 98 99 100 101 100 100 101 100 100 99 96 92 91 89 88 92 92 87 83 79 77 75 68 65 68 71 71 70 70 68 65 68 70 68 68 70 71 70 70 69 68 69 70 70 70 76 82 82 85 89 89 89 90 89 86 77 71 77 78 74 74 75 78 81 82 80 73 67 60 54 48 38 26
61 64 67 71 72 69 70 78 84 87 89 90 91 94 98 101 100 100 100 100 100 100 99 97 94 90 89 94 96 93 86 86 93 93 83 73 67 67 68 67 68 71 69 68 68 63 60 65 68 70 73 73 70 69 69 67 67 69 70 70 74 81 87 89 88 86 86 83 78 75 74 73 74 72 72 74 79 83 82 79 75 70 65 55 44
60 62 63 67 68 63 62 70 78 84 86 84 84 88 95 99 100 100 100 100 100 100 100 101 98 92 90 95 96 93 92 94 95 95 95 91 81 75 71 67 69 71 70 68 66 62 60 64 69 71 74 77 77 76 74 73 77 77 73 73 75 79 82 81 82 87 89 87 87 85 82 80 79 78 77 75 75 78 80 82 80 78 76 70 64
57 58 59 61 60 59 60 64 71 77 77 76 77 82 85 90 94 97 98 99 100 101 100 100 101 97 94 96 94 91 94 96 89 88 95 97 94 93 87 79 76 74 72 70 69 68 67 71 80 84 82 79 79 82 83 83 89 92 90 89 88 87 88 85 82 88 95 96 95 95 94 90 87 84 83 83 82 81 82 83 81 81 80 78 79
56 55 56 57 56 56 57 60 64 67 67 67 70 74 76 80 85 89 94 96 97 100 101 100 101 100 100 99 96 93 93 93 90 88 91 91 89 94 94 89 83 79 77 72 70 70 71 78 87 90 92 90 85 86 90 91 89 88 91 94 94 90 88 89 90 89 92 99 101 100 100 98 97 94 90 89 89 88 87 87 87 87 87 85 86
56 54 54 55 55 53 51 50 56 62 63 63 66 69 71 73 77 81 86 91 92 93 95 97 97 98 102 98 92 92 91 91 89 86 91 95 91 87 82 83 86 85 86 82 76 75 73 76 79 81 90 92 88 84 83 85 84 81 81 84 91 95 91 84 85 86 88 94 96 97 100 101 100 100 98 96 94 93 91 89 90 91 95 95 93
56 54 52 53 52 50 46 40 47 59 62 63 67 68 68 69 70 73 79 83 81 77 78 84 88 93 96 90 88 92 91 90 85 82 90 95 97 92 74 72 80 78 83 89 87 88 85 81 83 88 92 87 82 81 75 73 76 77 74 70 80 95 93 79 76 80 85 91 91 92 97 98 99 99 98 98 98 95 93 93 94 94 96 99 97
55 52 50 49 48 47 44 39 44 52 54 58 64 64 63 65 67 68 71 72 68 63 62 67 75 84 89 86 86 87 82 82 82 82 85 82 85 84 67 67 72 62 69 82 87 95 95 86 82 82 83 76 74 79 79 78 76 75 76 71 77 91 89 81 80 80 82 90 93 93 92 89 91 96 97 98 100 98 97 97 97 98 99 100 99
54 51 49 48 47 47 44 44 49 50 48 50 54 57 58 61 64 65 64 64 62 61 60 60 63 71 78 77 72 70 65 65 67 69 72 70 70 71 60 58 60 54 62 70 72 78 75 65 59 61 68 67 65 66 67 70 68 68 75 73 74 84 88 88 88 85 87 92 90 86 87 88 90 92 92 95 98 99 100 99 98 97 97 99 100
51 50 51 49 49 49 45 47 52 52 51 49 45 46 52 56 60 61 60 59 58 59 58 58 58 59 62 62 59 58 56 54 54 52 54 55 57 65 62 54 52 53 56 56 54 54 50 46 45 52 67 74 74 71 65 68 69 70 76 72 71 82 91 95 93 88 89 89 82 77 82 90 94 91 90 93 95 96 99 101 101 100 99 99 99
48 46 49 50 50 47 45 50 55 55 56 54 45 38 37 42 52 59 60 57 55 57 57 55 56 54 54 56 56 56 54 52 52 49 48 45 44 55 60 56 54 54 52 51 51 49 45 43 39 42 55 66 73 76 77 83 83 84 86 82 83 88 87 86 83 80 80 79 78 79 79 83 87 88 89 89 89 90 94 96 96 97 99 100 98
45 42 42 45 44 41 43 50 56 55 56 56 53 46 36 31 39 51 59 61 56 55 57 55 55 55 54 54 55 57 58 56 52 50 49 46 46 53 56 55 55 55 55 51 49 50 50 45 36 34 40 46 53 58 63 70 70 72 78 77 78 78 72 67 65 64 65 66 71 78 82 84 85 85 85 84 84 85 85 86 86 88 92 96 99
43 40 37 37 34 33 38 45 50 50 50 52 55 54 45 32 29 36 46 59 62 57 56 56 53 51 51 54 56 55 56 58 56 54 54 51 54 55 51 52 54 57 63 58 48 48 50 47 37 34 38 41 44 46 47 50 50 51 56 57 56 56 56 57 56 55 54 54 58 63 70 75 75 75 76 75 74 74 73 74 76 78 82 87 92
41 38 37 36 32 30 33 37 40 41 43 48 52 54 50 38 31 32 35 46 58 61 60 58 54 50 48 48 47 44 47 57 59 57 56 53 55 53 50 53 54 62 71 66 59 54 47 44 40 37 43 44 43 45 44 43 44 44 45 46 46 46 47 47 47 46 47 47 48 49 51 54 54 54 56 58 58 60 61 61 64 67 71 77 81
38 36 37 40 41 40 39 35 33 35 41 46 50 52 52 44 37 37 36 37 47 58 62 61 58 58 53 44 41 43 48 56 57 56 54 50 50 50 50 52 53 65 74 62 59 62 51 45 45 43 42 41 39 39 38 38 38 39 40 42 43 43 43 43 42 41 42 43 43 44 44 44 45 45 45 48 50 52 53 53 55 57 59 63 70
38 37 38 43 47 51 52 44 34 33 42 48 48 47 48 50 47 43 43 43 46 53 59 60 59 61 60 51 46 50 53 53 52 52 52 50 51 50 51 52 50 59 66 55 53 60 54 49 50 47 42 39 37 34 32 35 35 35 38 40 42 44 44 44 44 43 43 43 42 43 44 45 45 45 45 45 45 45 46 45 45 47 50 52 56
43 41 40 43 48 52 55 52 42 36 43 50 50 46 44 48 52 48 47 46 44 47 53 56 55 57 62 59 51 50 51 51 51 50 50 50 51 52 54 55 53 55 57 54 54 55 52 51 50 48 45 41 38 33 29 33 38 38 40 41 42 43 44 44 44 44 44 44 44 44 44 45 46 46 46 45 46 46 46 45 44 44 47 48 48
48 47 44 45 48 51 51 53 49 41 42 46 48 50 45 45 52 53 50 49 45 46 51 54 52 52 59 60 52 47 48 49 48 47 48 47 46 50 54 52 51 52 51 51 57 56 52 51 49 47 45 40 36 31 26 31 37 39 41 42 42 42 43 43 44 44 45 45 47 47 47 47 47 48 48 47 48 49 48 48 47 45 46 49 49
51 51 50 48 49 51 50 51 52 49 48 46 45 50 48 46 53 57 55 54 52 50 51 55 54 48 49 54 52 48 46 47 47 46 46 46 45 47 49 46 45 47 46 47 54 56 51 48 47 46 42 34 30 29 28 31 36 39 41 42 43 44 44 45 45 45 47 48 49 50 50 50 49 49 49 49 49 49 50 49 47 46 47 49 51
53 52 52 52 51 54 54 52 53 53 54 53 49 51 51 47 51 56 56 55 55 55 53 54 56 50 44 46 51 53 50 46 42 42 43 45 46 45 45 45 44 45 46 45 48 52 51 46 43 39 32 26 25 26 28 31 32 33 35 37 39 42 44 45 46 46 46 48 49 49 49 49 50 49 48 49 48 48 48 48 47 47 46 47 49
57 55 54 55 53 54 56 56 56 55 55 57 55 55 55 52 50 52 54 53 53 54 53 53 56 57 52 47 49 55 55 51 43 39 42 45 46 47 47 47 45 43 42 39 38 42 44 39 32 27 22 20 21 24 25 25 24 22 23 25 27 31 35 37 39 40 41 43 45 49 52 51 50 50 50 49 49 49 48 47 48 48 48 48 47
58 57 56 58 58 56 55 55 56 56 56 57 59 59 60 59 56 53 53 52 52 53 53 53 55 58 59 54 52 52 51 54 51 43 41 43 47 50 49 49 47 40 32 29 28 28 28 25 21 20 20 21 23 26 26 23 22 21 22 23 22 22 25 28 29 30 30 32 35 40 49 54 54 53 52 52 50 51 51 51 51 51 51 51 50
61 60 62 64 65 64 63 63 61 59 59 61 63 64 63 63 62 61 58 54 53 53 54 55 55 56 58 57 56 53 49 50 52 48 43 41 44 47 48 50 48 38 30 29 28 24 21 20 21 23 26 28 29 31 32 28 24 23 23 26 27 27 26 24 25 26 25 25 25 28 34 42 50 53 54 54 53 53 54 54 54 55 54 53 53
66 63 64 67 67 64 65 72 77 74 70 68 66 64 64 65 65 64 65 61 58 56 55 55 56 56 56 56 56 56 54 50 48 48 46 42 41 44 47 49 45 37 33 34 32 28 26 28 31 34 36 36 35 35 36 36 35 35 32 28 27 29 31 30 27 27 28 28 27 29 30 32 38 45 49 52 54 53 54 55 54 55 54 53 53
70 66 65 66 67 65 65 74 85 88 81 71 65 63 64 67 66 66 67 67 65 63 60 59 59 57 57 57 56 56 56 55 51 49 49 46 43 44 46 44 42 42 41 37 35 33 34 37 41 44 45 44 42 40 39 38 38 43 48 46 38 33 35 40 38 34 34 36 37 35 36 36 35 35 37 40 44 47 49 50 51 50 51 50 50
72 68 66 64 65 68 69 74 84 89 83 71 65 66 66 66 67 68 69 70 69 66 64 64 64 62 61 59 58 56 55 56 54 52 52 49 44 43 44 42 43 47 44 38 36 38 41 45 48 49 49 46 44 43 42 42 45 51 59 67 65 55 48 47 47 46 46 46 47 43 40 39 35 31 30 30 31 35 37 39 42 42 44 45 45
75 74 74 71 69 68 70 75 81 83 79 73 70 71 71 70 70 70 71 72 71 68 66 68 69 67 66 64 61 59 56 56 56 54 54 52 47 44 44 45 44 44 41 38 39 41 44 48 51 52 51 48 49 51 51 54 61 64 64 69 72 70 66 57 49 55 62 60 58 54 48 46 45 39 36 34 32 32 33 33 34 34 35 38 40
79 81 80 77 76 76 79 82 83 82 80 79 79 78 77 76 75 75 75 74 74 74 74 75 74 72 70 67 65 62 59 58 57 56 55 54 52 48 46 46 45 44 41 40 42 43 45 49 52 54 54 52 51 55 59 61 64 63 62 67 71 72 75 72 60 58 67 69 68 65 55 54 58 54 48 46 42 41 41 38 35 34 35 38 41
71 77 81 84 86 88 88 85 81 79 77 77 79 80 81 81 81 81 81 80 81 82 82 82 80 78 75 72 70 67 63 60 58 58 57 56 54 50 47 46 46 45 43 42 45 47 47 50 52 53 55 53 49 50 56 60 61 61 63 69 74 73 76 84 79 69 65 66 72 73 62 59 65 65 59 56 53 51 50 47 42 40 43 47 51
51 56 62 67 69 68 68 66 65 66 67 69 73 77 79 81 84 86 86 86 86 86 86 85 83 82 79 77 74 70 66 62 60 59 58 57 54 51 48 47 47 47 44 43 47 49 50 52 53 52 53 53 50 52 57 60 61 63 65 67 72 75 77 83 86 77 67 65 70 72 67 63 67 67 64 61 61 58 56 53 50 48 52 57 60
40 42 44 46 48 48 47 48 49 50 52 56 61 68 74 77 80 84 85 85 87 87 87 86 85 84 81 78 75 72 68 64 61 61 61 57 53 51 50 49 48 47 46 47 51 55 57 57 54 52 54 56 57 59 63 66 66 66 68 68 69 72 74 77 79 75 68 67 70 73 71 64 63 67 68 63 61 61 61 60 57 57 62 66 67
40 42 44 44 45 45 45 45 46 46 46 47 49 54 62 69 75 79 80 80 82 84 85 85 86 86 84 79 75 72 69 65 63 64 61 56 54 54 54 51 49 48 49 52 58 61 60 58 55 55 58 61 63 64 66 69 71 70 70 70 68 69 70 70 70 68 65 65 68 75 77 68 62 69 70 62 58 63 67 65 59 61 68 70 68
41 43 43 44 44 44 45 47 48 48 48 48 48 48 51 58 68 75 76 77 78 80 81 81 81 82 84 82 77 72 69 65 62 61 59 57 58 57 54 51 50 51 54 56 59 60 58 58 59 60 62 64 66 69 70 70 71 70 68 67 66 65 65 67 66 64 62 63 66 75 80 73 68 71 70 65 65 70 70 65 59 62 70 71 67
44 45 44 44 44 44 46 46 47 48 48 48 49 49 49 51 58 67 74 78 80 81 80 78 76 79 85 85 78 70 65 62 60 59 59 58 56 54 53 54 56 57 58 58 59 60 60 61 64 65 66 68 69 69 68 67 66 65 63 63 62 62 67 75 75 70 67 66 66 72 79 77 73 73 73 72 73 73 69 65 64 66 70 70 67
44 45 44 43 43 43 45 46 47 47 48 50 50 51 52 51 54 65 75 80 83 82 80 77 76 79 83 82 75 67 62 60 59 58 57 55 55 57 59 61 61 60 60 60 61 61 62 63 65 65 64 64 63 62 61 61 62 63 66 67 65 66 75 85 86 81 78 74 70 74 83 84 80 78 78 76 75 75 73 71 69 70 71 70 67
45 45 45 44 44 43 44 46 50 51 52 53 54 54 55 57 62 73 81 83 82 80 77 76 76 76 75 72 68 64 62 60 58 56 56 57 58 60 61 60 61 60 60 60 59 59 59 59 59 59 58 58 59 59 60 61 62 65 69 72 71 73 81 88 89 87 86 81 74 76 83 84 80 80 81 80 79 78 76 73 71 72 72 69 66
48 50 51 49 47 45 44 45 50 55 56 56 57 58 57 60 68 79 84 82 78 74 73 71 70 68 67 65 63 62 61 60 60 60 61 62 63 62 61 59 59 58 56 55 55 55 55 56 55 56 57 58 59 60 61 62 63 64 67 69 72 77 82 86 88 91 93 88 78 76 82 83 82 83 83 85 86 82 76 74 74 73 72 71 70
Wind_Speed
11 11 11 11 11 11 10 10 8 8 7 7 6 6 5 3 2 2 4 4 4 2 1 3 6 5 3 3 4 6 7 8 8 9 10 10 8 7 6 6 8 8 8 7 9 11 11 10 9 9 8 7 8 8 6 6 6 5 3 3 3 4 4 5 5 5 5 5 6 7 7 7 7 7 7 8 8 8 8 8 9 10 10 10 10
11 11 11 10 10 10 10 9 7 7 7 6 6 5 4 3 2 2 3 4 4 2 2 3 5 5 5 5 5 5 7 9 8 9 11 11 9 7 6 6 7 8 8 8 9 11 11 11 10 10 9 8 8 8 7 7 7 6 6 4 2 3 3 4 4 5 5 5 5 6 6 6 6 6 7 7 8 8 7 7 9 10 10 10 10
11 11 10 9 9 9 9 9 7 6 6 6 6 6 6 5 5 5 5 6 5 4 4 4 3 3 5 7 7 6 7 9 10 9 10 11 11 9 7 7 7 8 8 8 8 9 10 11 11 10 10 9 9 9 9 8 7 7 8 6 4 3 3 4 4 4 4 4 4 5 5 6 6 6 6 7 7 7 7 7 8 9 9 9 10
11 11 10 8 8 8 9 9 7 7 7 7 8 8 8 8 7 6 6 6 6 5 4 3 1 1 3 5 6 7 7 9 11 11 11 12 12 10 9 8 8 8 8 9 8 9 9 9 11 11 10 11 9 9 9 9 8 7 7 8 6 4 5 5 4 4 4 4 4 4 5 5 6 6 6 6 7 7 7 7 8 8 9 9 8
11 11 9 8 7 8 9 9 9 8 9 9 9 9 9 8 7 6 6 6 6 5 5 4 3 1 3 3 2 5 6 7 10 11 12 13 13 12 11 10 9 9 9 9 8 9 9 8 10 10 9 10 10 10 9 8 9 8 8 9 7 5 5 6 4 4 4 4 4 4 5 5 5 5 5 6 6 6 7 7 7 8 8 8 8
11 11 10 8 8 8 10 11 10 10 10 10 9 9 9 8 8 8 7 6 5 4 4 4 3 1 1 2 2 2 4 6 8 10 12 14 15 13 12 11 11 10 10 10 9 10 9 7 9 10 9 9 9 11 10 9 10 10 8 9 9 7 5 6 5 4 4 3 4 4 5 5 5 5 5 6 6 6 6 6 6 7 8 8 8
11 11 10 9 9 10 11 12 11 10 10 9 9 9 8 7 7 8 8 8 6 4 4 3 3 2 2 2 3 3 2 5 7 9 11 14 15 14 13 13 13 12 11 11 11 10 10 9 9 9 9 9 8 10 11 10 10 10 10 8 9 9 7 6 6 5 5 4 4 4 5 5 5 5 5 5 6 6 5 5 6 6 6 7 8
10 11 10 9 9 10 11 11 10 9 10 10 9 9 8 7 8 8 9 9 7 5 3 2 3 3 4 3 3 3 2 3 5 8 12 15 16 15 14 14 14 13 12 12 11 11 11 10 10 9 10 10 8 8 9 9 9 10 11 10 9 10 9 8 7 5 5 5 5 5 4 5 5 5 5 4 5 5 5 5 5 5 5 6 8
8 9 9 9 9 9 9 9 8 8 9 10 10 10 9 8 9 9 9 8 7 5 3 2 3 4 5 4 4 4 4 4 3 6 10 15 16 16 16 15 15 14 13 12 11 11 12 11 11 11 10 11 10 8 8 8 8 9 10 11 11 10 10 10 9 7 6 6 6 6 6 6 5 4 4 4 4 4 4 5 4 5 5 6 7
4 6 7 8 9 9 9 9 9 9 9 10 11 11 9 8 9 9 8 8 7 6 5 3 3 4 4 5 5 5 5 6 5 5 9 13 16 17 17 16 16 14 13 13 13 12 12 12 12 12 11 12 11 9 8 8 8 9 9 10 11 10 9 11 10 9 7 6 5 6 6 7 6 5 4 4 3 3 4 4 4 5 5 6 6
4 5 5 6 6 7 8 8 9 9 9 10 12 11 9 8 9 9 8 8 7 6 5 4 3 3 4 4 4 5 6 6 6 7 7 8 10 12 14 14 14 15 14 14 14 13 13 12 13 13 13 13 13 11 10 10 10 10 10 10 11 11 9 10 11 11 10 8 6 5 5 7 8 6 5 4 4 3 4 4 4 4 5 5 6
4 4 5 4 4 4 5 5 6 7 8 9 10 9 7 7 8 8 8 8 8 7 6 5 4 3 3 3 3 4 5 5 6 8 8 7 5 5 7 9 10 12 13 14 16 16 15 14 13 14 13 14 14 13 11 11 12 12 11 11 11 12 11 10 11 12 12 10 8 7 5 5 8 7 6 5 4 4 4 4 4 4 4 5 5
4 5 6 5 5 4 3 4 4 4 5 6 6 6 6 6 6 6 6 7 9 10 8 6 4 3 2 3 4 6 6 6 5 7 8 7 7 6 4 3 4 6 9 12 15 16 17 17 16 15 15 15 15 15 13 12 13 13 13 12 11 12 12 10 10 11 12 11 10 9 7 6 7 7 6 6 5 5 5 4 4 4 4 4 5
3 5 7 7 6 5 3 3 3 3 3 3 4 4 4 5 5 5 6 7 7 8 8 6 4 4 3 1 2 4 6 7 7 8 8 8 8 7 5 3 2 3 5 9 12 15 16 17 17 17 17 17 16 16 15 14 14 14 14 14 12 11 12 10 9 9 10 12 11 10 9 8 8 9 8 7 6 5 5 5 5 5 5 5 5
3 6 9 8 7 6 5 5 5 5 3 2 2 3 3 2 3 5 7 8 6 5 7 6 4 5 4 1 1 1 3 4 5 6 7 9 10 10 8 8 7 6 6 7 8 11 13 15 16 16 18 19 18 17 17 16 15 15 14 15 14 12 13 12 10 10 11 11 11 11 10 9 10 10 9 9 8 7 6 6 5 6 6 6 6
5 7 10 9 7 6 6 6 7 7 5 4 4 3 2 2 2 3 5 7 7 5 6 6 5 4 3 1 1 1 0 1 2 3 4 7 9 9 8 9 9 9 10 9 7 7 11 15 16 16 16 18 18 19 19 18 17 17 16 16 15 15 14 13 13 13 13 12 12 12 12 11 11 11 10 10 9 8 8 7 7 7 7 8 8
6 7 9 9 8 6 5 5 6 7 6 5 5 5 4 3 2 2 2 5 6 5 5 5 5 4 3 2 2 1 1 1 2 3 4 6 7 8 9 8 8 8 9 9 8 7 10 14 17 18 17 17 18 19 20 21 20 20 19 18 17 17 16 15 14 14 16 15 14 13 13 13 12 12 11 10 10 10 9 9 9 8 9 9 9
8 7 8 9 8 7 5 5 6 7 7 6 6 5 5 5 4 3 2 4 5 6 6 6 5 4 4 3 2 1 1 1 1 1 2 5 7 7 7 7 7 7 7 6 5 5 7 10 14 16 16 17 17 18 19 20 21 21 20 20 20 20 20 19 18 17 17 18 17 17 16 15 14 13 13 12 11 10 10 10 10 10 10 11 11
8 8 8 9 9 8 7 7 6 6 6 5 5 5 5 6 6 5 4 3 4 6 7 6 5 5 4 2 1 2 1 1 2 2 1 3 4 5 5 6 6 7 7 6 4 5 4 7 11 11 11 11 12 14 16 17 20 20 20 21 22 22 21 21 22 22 20 19 19 19 19 18 17 15 14 14 14 12 12 12 12 12 12 12 13
6 6 8 10 9 8 7 6 5 5 5 5 5 5 5 5 6 6 7 6 3 3 5 4 4 6 6 3 1 2 2 1 2 2 3 2 1 2 3 4 5 5 6 5 5 6 7 7 9 8 8 8 8 10 11 13 16 16 16 18 21 22 20 19 21 23 25 25 22 21 20 19 17 17 17 17 17 16 16 16 16 15 14 14 13
5 6 8 9 8 7 6 5 5 5 5 5 6 6 6 5 6 6 6 7 6 6 6 5 4 5 6 4 4 4 3 3 4 4 4 3 0 0 2 4 5 3 0 4 4 5 7 7 6 6 6 7 8 9 8 10 12 11 9 9 12 15 15 14 15 16 20 25 27 25 23 20 17 18 19 18 18 20 19 19 20 19 17 16 14
8 8 8 7 6 5 5 6 7 6 6 5 5 6 6 6 7 7 7 7 8 7 8 7 6 6 6 5 5 5 4 3 4 4 4 5 3 1 3 4 6 10 9 3 4 4 2 1 1 2 4 6 8 9 7 7 8 7 6 5 8 12 11 11 11 11 14 20 22 22 22 22 21 20 19 17 18 20 19 18 20 22 20 19 17
9 9 9 7 6 5 4 7 9 9 8 6 5 5 5 6 7 7 8 8 7 6 6 7 7 7 7 6 6 6 6 5 5 4 4 4 4 2 4 5 6 10 15 14 10 9 9 10 11 9 7 6 6 6 7 7 6 5 5 5 7 11 12 12 12 10 12 15 14 11 10 13 18 20 20 19 17 18 19 18 19 21 22 22 21
10 10 9 8 6 5 5 7 8 9 9 9 7 6 5 5 6 6 6 6 5 5 6 7 6 7 8 7 7 7 7 7 6 6 6 5 4 3 3 5 6 9 15 20 20 20 18 18 18 17 14 11 8 4 3 5 4 4 6 6 8 10 10 10 9 8 10 11 10 10 9 5 6 12 16 18 17 18 19 19 20 22 23 23 22
11 11 11 9 7 6 6 6 7 7 8 9 9 8 7 6 6 6 6 6 6 6 7 8 7 8 8 7 7 6 7 7 6 5 5 4 4 4 4 5 6 6 10 14 15 16 18 19 18 17 17 17 15 14 10 6 4 2 2 4 6 6 4 5 6 6 7 9 8 7 8 6 4 5 7 10 13 15 16 17 19 21 22 22 23
12 12 12 10 8 7 7 6 6 6 6 6 8 9 8 7 7 6 6 7 7 7 8 8 8 8 7 7 8 8 8 8 6 6 6 5 5 4 3 5 6 6 7 8 10 10 10 14 18 17 16 17 17 17 17 14 12 10 6 5 4 3 5 5 5 5 6 8 8 6 6 5 5 5 5 7 9 11 13 14 15 16 17 19 22
11 11 11 11 10 9 8 7 6 5 4 5 6 7 7 7 7 7 7 6 6 7 8 8 8 8 7 6 7 8 8 7 8 9 9 9 10 8 4 3 4 4 4 6 9 11 8 8 15 18 16 15 15 15 14 13 12 10 8 7 7 6 5 6 6 6 7 7 8 7 6 5 6 5 6 7 8 9 11 12 12 13 14 15 17
11 11 12 12 11 10 9 8 7 6 5 5 5 5 6 6 7 7 8 6 5 6 7 7 8 9 8 7 6 7 7 7 8 9 10 10 11 12 11 7 3 1 3 4 5 8 10 9 13 17 17 15 14 13 11 10 10 8 7 6 6 6 6 6 7 8 8 8 8 8 8 8 8 9 9 9 9 10 11 12 13 13 13 14 14
12 11 12 11 10 10 8 8 8 8 8 7 6 5 5 5 5 6 7 7 6 6 6 6 7 8 8 8 8 10 10 8 8 8 8 9 9 10 12 12 8 3 2 3 2 3 9 12 14 16 17 16 14 13 12 10 10 8 7 6 6 6 7 7 8 9 9 9 9 8 9 9 9 9 10 10 10 10 11 12 14 14 14 14 14
13 12 11 11 10 9 7 7 8 9 9 8 7 6 5 4 5 5 5 7 7 6 5 5 5 6 7 8 8 10 10 9 9 9 9 9 9 10 11 12 13 9 5 3 1 3 8 12 15 16 17 17 16 15 14 12 11 10 8 8 7 8 8 8 8 9 9 9 9 9 8 8 8 8 9 9 10 10 11 12 12 13 14 14 14
14 13 12 11 10 9 7 6 7 8 10 9 7 7 6 6 5 5 5 5 6 6 5 4 3 3 5 6 6 7 7 7 8 8 8 8 8 9 10 10 11 11 8 5 2 4 7 10 14 15 16 17 16 16 15 14 12 12 11 9 8 8 7 7 8 8 8 8 9 10 10 9 9 9 10 10 11 12 12 13 13 13 13 13 13
15 14 13 12 11 10 9 8 8 9 10 10 9 8 7 6 6 6 5 4 4 4 5 4 3 2 3 4 5 5 5 5 5 6 6 7 7 7 8 9 10 10 10 8 4 3 6 9 12 14 16 17 16 17 16 14 13 12 12 12 11 10 9 9 9 9 8 8 8 10 10 10 10 10 10 10 11 11 12 13 13 13 12 11 11
18 16 15 13 12 12 11 11 10 10 10 11 11 10 8 7 6 6 5 4 4 3 4 3 3 2 2 2 3 3 3 3 3 4 5 6 7 7 7 8 10 10 10 10 7 5 7 10 12 14 17 18 18 18 18 16 15 13 12 12 12 12 12 11 10 10 10 9 9 9 9 9 9 9 10 10 11 11 12 13 13 13 12 11 10
21 20 17 15 14 13 14 14 12 12 11 11 11 11 9 9 8 7 7 6 6 5 5 5 4 4 4 4 3 2 2 1 1 2 2 3 4 5 7 7 9 10 11 11 10 8 10 13 14 16 18 19 19 18 18 18 17 15 14 13 13 13 12 11 11 11 11 11 11 10 9 10 10 10 11 12 12 12 12 13 14 14 13 12 12
22 22 20 18 17 15 15 16 15 14 13 12 12 12 11 10 10 9 9 9 8 8 8 7 6 6 6 5 5 4 3 2 1 0 1 1 2 3 5 6 7 9 10 11 11 10 11 13 15 17 19 19 18 18 18 18 17 17 16 15 15 14 13 13 12 12 12 12 12 12 11 10 10 11 11 12 12 12 12 12 12 13 13 13 13
21 20 21 22 22 20 18 19 19 17 16 15 14 13 13 12 11 11 11 11 11 11 10 9 8 8 8 7 7 6 5 5 3 1 1 1 1 1 2 4 6 8 9 10 11 10 11 12 14 16 17 17 17 18 19 19 18 18 18 17 17 16 15 15 14 15 15 14 14 13 12 11 11 11 11 12 12 12 11 11 10 10 11 11 11
21 19 20 22 22 21 21 22 23 21 19 18 16 15 16 15 14 14 14 14 14 13 12 12 11 11 11 10 9 8 7 7 6 4 3 3 2 1 2 3 4 5 7 9 11 11 11 12 13 14 15 16 16 17 19 21 22 21 20 19 19 18 18 17 16 17 17 17 17 16 15 14 13 13 13 12 12 12 11 11 10 9 9 10 10
16 17 18 19 20 20 22 25 27 26 22 19 17 16 18 19 17 17 17 17 17 16 15 14 14 13 13 12 11 11 10 9 8 7 6 5 4 3 3 2 2 4 6 9 11 11 11 11 11 12 14 16 17 18 20 21 22 22 23 23 22 22 23 23 23 22 21 20 19 18 17 17 16 16 16 15 15 14 14 13 12 12 12 12 12
16 18 17 16 16 17 18 22 28 30 26 22 19 17 19 21 21 20 20 20 20 19 18 17 17 16 16 15 14 14 13 12 11 10 9 8 6 5 4 3 2 4 7 9 10 11 11 11 11 12 14 15 17 19 19 21 20 20 23 25 26 27 28 28 28 28 25 21 19 19 18 19 19 18 18 18 17 17 18 17 17 17 17 17 17
17 17 16 16 16 15 15 20 26 28 26 22 20 19 20 21 21 21 21 21 21 20 20 19 20 20 19 18 18 17 16 15 14 14 13 12 9 7 7 5 4 6 7 8 9 9 9 10 10 12 14 16 18 19 21 22 21 21 21 21 23 27 30 30 29 27 24 22 22 22 23 24 24 23 21 20 19 19 20 20 20 21 20 20 20
13 13 13 14 14 13 14 18 22 23 21 20 20 20 21 21 21 21 21 21 21 20 20 21 22 22 22 21 21 20 19 18 17 17 17 16 13 10 9 8 7 6 6 5 6 7 7 8 9 11 14 16 17 18 20 20 19 19 20 20 21 24 26 30 30 24 19 21 25 28 29 30 29 28 27 24 22 21 20 20 20 21 21 21 21
8 8 9 10 11 12 13 16 18 18 18 18 18 18 19 20 21 21 21 21 21 21 21 21 22 23 23 23 23 22 22 21 20 20 20 18 14 11 9 8 7 6 5 5 5 5 6 7 8 9 12 15 16 16 16 16 16 18 21 21 23 24 24 26 27 23 19 21 27 32 34 32 30 30 30 28 25 24 22 22 20 19 18 18 18
2 3 4 6 9 10 11 11 11 11 12 13 13 14 15 16 17 19 19 20 20 20 20 20 21 21 22 23 24 24 24 23 22 22 21 18 15 12 9 8 7 7 7 7 6 5 5 5 6 8 9 13 16 16 15 16 17 18 20 20 20 22 21 19 19 22 23 25 29 34 36 33 28 28 29 27 25 25 24 23 21 17 15 15 17
5 4 3 2 2 2 2 3 4 6 7 9 10 11 12 13 14 16 17 18 18 18 18 18 18 19 20 21 23 24 24 24 24 24 22 18 16 13 10 8 7 8 9 9 9 8 7 7 7 8 8 10 13 15 15 16 17 18 19 19 19 19 19 17 17 22 27 29 30 32 36 34 27 25 27 26 24 25 23 20 18 15 14 15 16
5 5 5 5 4 3 3 3 4 5 5 7 8 10 11 12 12 13 14 15 15 15 15 16 16 17 18 19 20 22 23 24 25 23 21 18 15 12 9 7 7 8 9 9 9 9 8 7 7 8 9 10 11 13 13 13 15 17 18 20 21 20 21 21 22 27 32 32 28 27 31 33 28 25 25 26 26 24 20 15 14 13 13 13 13
4 4 4 3 3 4 5 5 6 7 7 8 9 9 10 11 12 13 12 12 13 13 13 13 15 16 17 18 18 19 21 23 23 21 20 16 13 9 8 7 7 7 8 8 8 7 7 7 8 9 10 11 11 12 13 13 14 17 18 20 22 23 25 26 27 31 33 31 25 21 24 28 27 24 24 27 27 22 16 14 14 12 11 11 11
3 3 3 4 5 6 7 7 8 9 9 9 10 11 10 11 12 13 13 12 11 12 11 12 13 14 16 16 16 17 19 19 19 18 17 13 10 9 8 7 6 7 8 8 9 9 9 10 11 11 11 12 12 12 14 15 17 18 20 21 22 23 26 27 27 28 28 25 21 17 19 23 24 24 26 26 23 19 17 17 16 12 11 11 12
4 4 4 5 6 7 8 10 11 12 12 12 12 11 11 11 11 12 13 13 12 11 11 12 13 13 14 14 14 15 16 16 16 14 13 11 11 10 8 6 7 8 8 9 10 11 12 12 12 13 13 13 14 15 16 18 19 19 20 20 20 20 21 20 21 21 20 20 19 17 20 22 21 22 25 22 20 21 21 18 13 10 12 13 14
5 5 6 6 7 9 10 11 12 13 13 13 13 12 12 11 11 11 12 12 11 11 11 11 11 11 10 10 11 14 15 15 14 13 12 11 10 8 7 7 8 9 9 10 11 12 13 14 14 14 14 14 16 17 17 17 17 16 16 17 17 17 17 16 14 15 18 21 18 15 17 19 17 18 22 22 22 22 20 16 12 11 12 13 16
8 8 8 8 9 10 11 12 13 12 12 12 12 12 12 11 11 9 9 10 9 9 8 7 6 6 7 8 11 13 14 13 12 11 9 8 8 7 7 7 8 9 9 10 12 13 13 14 14 14 14 14 15 16 15 15 14 13 14 16 16 17 18 16 15 17 21 18 11 11 15 18 17 18 21 22 22 20 17 13 10 10 13 16 19
9 9 9 9 10 11 12 13 13 12 12 12 11 11 10 10 10 7 6 8 8 8 8 8 8 8 9 10 10 11 11 10 9 7 6 6 6 6 6 7 8 9 11 12 14 15 15 15 15 15 15 15 15 15 15 15 14 13 14 16 17 19 20 20 19 17 13 8 8 15 19 20 20 19 18 16 14 13 13 11 11 13 17 19 20
Wind_Direction
212 217 224 221 215 210 212 220 219 214 213 215 216 201 196 195 166 190 200 205 204 207 260 0 347 316 285 253 197 196 211 205 196 200 200 200 208 217 215 217 223 222 213 203 192 187 187 186 189 193 192 187 175 168 174 178 181 192 188 144 124 119 120 117 118 116 109 108 109 111 114 111 107 106 106 105 103 102 100 99 103 100 100 101 98
223 226 229 225 220 219 223 226 226 225 224 229 236 229 224 237 264 251 234 239 240 244 290 338 345 319 283 261 225 213 215 207 202 205 205 204 209 216 218 216 221 224 220 207 196 194 192 188 192 196 194 192 184 178 181 182 184 196 206 199 166 150 143 136 135 130 122 120 119 121 121 120 118 113 112 115 113 111 106 106 111 109 109 110 104
229 234 234 229 224 225 229 229 231 239 245 252 257 261 258 264 276 271 265 263 261 271 293 307 333 332 294 270 246 233 222 209 207 210 211 212 212 215 217 214 217 221 221 216 204 200 201 193 193 198 196 196 193 190 189 188 189 190 203 218 216 197 184 168 155 147 141 136 133 131 130 127 125 122 119 119 119 117 114 111 112 111 109 108 105
231 235 234 231 227 228 232 230 234 244 254 260 261 263 262 266 266 260 262 262 262 269 281 275 256 3 334 291 252 239 234 216 212 215 217 218 218 218 218 215 215 218 222 224 215 208 211 200 197 202 201 202 199 197 199 194 192 189 202 217 218 209 199 193 177 162 159 150 148 144 140 137 133 131 128 125 124 123 121 116 115 115 110 106 105
231 230 228 233 233 230 230 229 231 238 247 253 254 256 257 259 252 244 250 254 257 260 262 250 230 297 4 352 264 223 221 215 216 220 224 224 222 222 222 221 218 217 222 228 223 216 221 209 202 210 212 210 201 200 207 201 196 192 203 215 214 213 200 197 194 181 178 167 164 160 151 148 143 142 140 137 134 129 127 122 123 125 120 116 114
229 227 226 230 233 231 227 225 228 232 238 245 248 247 250 253 243 236 242 248 250 244 245 243 235 247 35 40 55 156 192 204 212 219 229 230 226 226 226 224 221 221 223 227 227 221 227 222 206 212 221 219 206 201 205 204 202 194 199 219 219 217 214 203 201 200 201 195 182 171 164 162 156 155 153 149 145 137 134 130 129 131 131 132 130
229 228 228 229 232 233 227 224 228 231 234 238 242 242 244 250 243 236 236 239 239 233 245 243 222 187 140 108 77 83 158 193 204 211 223 230 229 231 233 230 223 223 226 227 229 223 227 230 220 218 219 220 212 205 206 204 207 199 195 216 220 212 216 217 211 209 209 207 203 189 178 176 170 165 163 160 155 146 141 137 134 134 137 142 143
235 232 231 231 230 230 227 225 228 238 241 241 243 243 242 247 246 235 228 230 230 232 253 225 183 170 157 151 121 97 111 167 201 209 217 226 231 234 238 238 229 226 229 230 232 228 228 231 232 231 223 222 220 211 207 202 209 209 199 208 221 214 209 217 223 217 208 205 208 209 199 191 184 179 177 173 165 155 150 146 141 142 143 147 151
236 234 231 227 224 226 227 227 234 242 244 246 251 248 242 243 242 233 224 224 224 222 228 195 168 171 166 158 144 134 125 131 177 205 213 221 228 234 238 242 238 233 235 237 238 234 231 232 235 240 233 231 233 221 204 197 207 216 210 208 219 226 211 208 222 223 208 203 209 217 219 215 203 194 192 187 178 169 165 160 153 152 153 154 156
215 218 219 219 221 226 228 234 244 244 241 245 251 249 245 240 236 232 221 217 216 213 216 205 180 182 182 171 154 149 146 138 144 175 204 216 223 230 236 242 242 241 243 246 247 244 240 236 235 240 240 238 240 231 208 202 209 216 221 212 211 227 222 204 212 223 213 202 204 209 217 221 215 207 201 197 196 192 182 174 169 167 166 165 165
158 175 186 198 211 219 224 235 244 243 241 244 247 248 248 240 234 232 223 214 212 205 203 203 187 181 187 180 163 157 159 147 139 147 168 196 212 223 230 234 236 239 245 250 250 249 246 244 240 239 241 240 242 239 217 206 209 215 224 219 208 216 228 213 208 215 215 212 212 204 207 215 212 212 210 204 202 205 204 197 192 187 178 175 176
122 141 148 148 159 184 205 219 231 236 241 246 246 246 249 247 242 236 228 221 219 213 206 207 200 191 198 202 199 201 192 171 158 154 147 148 161 186 212 221 227 234 242 248 251 251 249 248 248 245 243 242 242 242 231 213 209 214 220 224 216 210 220 225 214 212 211 213 221 219 212 205 205 208 213 217 215 212 214 215 215 211 202 192 188
115 123 127 135 141 148 175 198 213 218 226 242 246 247 253 254 247 235 223 220 224 223 217 215 209 207 221 228 229 227 222 220 212 192 173 164 157 145 140 171 217 234 246 251 249 249 250 249 249 250 249 246 244 243 240 229 217 217 221 230 229 212 214 222 217 217 213 210 217 226 225 208 201 204 208 216 221 222 226 227 228 229 227 221 210
133 133 132 138 136 124 120 139 159 170 187 223 240 244 252 251 243 230 213 207 217 220 212 211 203 189 185 204 241 231 221 222 222 217 207 204 207 200 182 183 216 236 256 263 257 252 254 254 252 252 252 251 248 245 242 238 230 223 224 234 237 222 217 217 216 223 221 213 209 215 224 216 207 208 208 212 216 222 229 233 236 236 239 240 232
147 145 140 135 126 116 105 103 108 119 139 161 182 207 217 222 228 227 214 202 199 197 196 202 193 168 145 115 229 218 223 220 203 209 213 212 219 221 219 228 240 242 246 257 262 257 252 252 252 252 254 255 254 252 247 244 241 234 231 236 238 230 224 222 226 229 226 223 212 208 213 210 207 212 215 218 219 220 224 230 237 241 243 244 242
141 143 142 138 133 125 116 112 106 103 111 120 120 134 149 164 197 210 213 205 195 190 194 196 188 163 136 107 118 102 226 241 130 142 185 196 209 211 210 224 235 239 240 239 240 243 240 243 247 248 250 253 255 256 254 250 248 244 241 241 240 236 231 226 231 235 233 231 222 214 213 209 206 209 214 220 224 225 227 230 234 240 244 243 242
137 143 143 141 138 130 126 131 126 120 125 127 114 102 105 126 148 152 198 209 193 183 190 200 198 183 161 131 94 105 234 235 95 106 146 162 178 186 190 202 210 214 222 226 225 220 224 235 244 245 246 253 258 260 262 259 256 253 251 250 248 246 242 236 233 236 238 239 236 230 228 224 217 213 215 221 227 230 234 237 239 238 241 242 241
125 135 141 140 134 126 123 130 137 137 138 133 124 115 105 103 103 117 169 206 194 178 183 206 207 190 175 147 109 137 206 187 131 132 133 143 158 170 175 178 177 183 196 208 221 218 223 239 251 256 254 254 259 263 266 266 265 265 264 262 258 254 252 250 248 245 243 243 242 239 238 238 234 228 225 225 229 234 237 242 244 242 240 240 239
119 122 132 134 127 121 118 120 130 135 134 127 123 121 107 95 88 97 125 156 191 188 184 199 202 187 187 181 124 103 111 146 152 150 135 137 154 169 178 175 171 182 189 189 206 222 239 256 265 281 282 268 265 265 267 270 267 265 271 275 271 260 254 253 256 256 251 248 245 242 242 243 240 239 239 237 237 238 241 244 245 246 244 238 232
129 124 128 131 123 116 112 115 133 140 138 132 125 121 113 102 95 96 105 107 110 138 151 165 180 189 195 191 158 125 109 115 110 119 145 144 126 139 149 161 175 197 204 195 206 226 239 254 262 275 285 288 289 278 277 284 279 269 273 285 283 272 265 261 261 261 256 252 250 247 247 245 242 245 248 246 244 243 244 245 244 242 241 238 232
149 144 137 132 123 114 102 99 126 140 139 133 125 119 110 101 101 106 108 103 94 89 93 102 125 163 171 139 112 116 110 104 96 88 97 108 188 311 70 103 110 80 122 210 212 222 233 253 266 260 259 273 285 281 273 279 288 292 293 300 299 287 280 278 274 270 264 261 259 255 253 250 245 245 248 249 250 250 247 246 245 240 235 237 241
150 153 150 143 132 120 101 91 104 118 127 131 129 120 110 103 102 108 113 109 103 92 82 83 93 118 128 110 106 115 114 113 107 94 81 81 99 66 25 69 83 55 52 118 196 200 212 305 338 289 295 291 285 281 269 260 272 297 317 330 324 309 304 306 301 294 289 286 281 272 263 255 247 245 252 256 258 258 255 253 251 244 237 236 239
158 158 155 152 144 128 109 97 96 97 98 101 106 105 102 110 112 113 117 114 109 99 86 85 86 95 102 97 97 102 98 96 88 82 80 75 83 59 18 52 72 58 63 81 100 108 97 77 71 63 39 359 320 289 271 260 259 290 318 325 319 311 307 308 309 310 309 315 322 320 297 267 251 248 254 258 261 264 263 259 254 250 247 240 235
167 166 161 158 152 137 122 110 100 92 86 83 82 83 87 105 119 120 115 109 106 103 100 99 93 92 97 94 90 88 83 81 72 67 73 81 94 81 32 52 70 67 74 84 86 85 82 75 68 63 59 50 37 17 282 251 247 277 293 291 294 300 306 312 323 336 331 335 355 10 10 347 275 257 258 261 265 268 266 261 256 257 255 245 238
171 171 169 169 166 153 139 125 109 95 85 79 74 71 75 90 105 113 106 96 99 106 104 102 94 89 89 88 86 83 77 69 57 56 61 67 92 93 66 65 79 81 80 84 85 80 71 63 60 61 64 64 64 64 69 82 81 45 316 292 294 305 343 1 359 359 345 343 359 12 18 21 359 310 287 282 279 278 278 274 269 268 265 255 248
179 176 173 172 172 163 152 141 126 110 94 85 77 71 72 85 96 104 104 96 97 101 99 95 89 83 79 79 81 79 75 66 54 52 54 51 59 77 92 82 78 79 78 81 85 81 69 57 52 55 63 66 68 70 72 76 74 67 64 57 45 38 36 29 15 4 356 356 1 3 6 6 358 343 320 307 300 296 297 294 292 289 284 275 263
190 185 177 172 169 164 161 156 146 139 125 104 89 74 68 80 93 98 101 106 105 97 92 88 82 76 74 75 78 76 73 70 64 58 56 54 52 49 60 94 85 60 54 72 74 66 64 60 50 49 58 64 65 66 66 70 71 70 71 68 59 47 27 12 4 355 350 353 355 354 350 339 331 325 313 301 295 296 299 300 303 302 297 291 281
201 196 185 176 169 162 164 169 169 169 163 144 120 94 74 77 93 96 96 105 117 106 96 91 80 73 70 68 70 74 77 79 75 68 59 54 49 44 42 50 85 102 28 37 54 53 51 53 47 45 50 56 57 56 55 57 57 55 57 54 42 33 18 2 354 347 342 340 341 341 337 328 319 311 305 298 291 290 291 291 293 294 292 291 289
207 201 193 186 180 172 169 174 182 186 182 170 153 130 101 88 97 100 98 103 117 121 109 99 88 78 71 73 78 80 84 87 83 76 66 57 51 48 45 40 49 97 111 45 11 30 41 39 35 34 38 41 41 39 39 39 37 34 32 30 22 16 10 2 356 351 347 341 336 334 331 326 319 312 307 304 301 298 296 293 291 288 285 283 283
210 206 201 197 193 191 189 185 189 197 198 188 172 158 141 122 110 104 106 107 114 128 126 107 97 90 78 77 85 84 85 90 85 76 70 64 56 56 56 47 48 63 85 96 59 17 31 32 29 25 24 27 26 26 31 32 29 28 28 25 23 20 15 10 8 5 2 356 348 341 335 330 324 321 320 317 316 315 312 309 304 298 290 281 277
213 210 208 205 202 204 207 207 202 202 206 206 195 183 171 160 145 129 124 118 114 124 128 112 96 106 95 81 80 81 84 89 85 72 62 58 54 55 56 48 51 53 54 75 79 10 20 26 25 22 18 20 20 18 23 29 28 29 28 24 23 19 15 14 12 7 3 1 358 350 343 339 336 334 333 330 329 326 323 321 318 315 306 291 278
217 215 214 215 212 211 212 214 213 209 210 213 214 209 198 190 177 157 148 139 129 128 126 112 94 123 127 93 77 70 76 85 77 63 54 51 51 60 59 50 54 53 47 59 65 13 25 25 18 17 13 13 15 13 15 21 25 27 25 21 18 13 12 16 13 5 359 357 2 4 358 352 349 346 342 338 336 333 330 327 325 324 321 309 289
222 220 218 220 220 221 220 218 217 217 218 219 219 220 216 212 209 195 183 176 170 166 155 142 130 155 174 133 100 69 62 80 66 47 50 55 55 63 65 54 53 50 41 44 43 19 13 12 9 9 5 6 10 9 9 11 14 17 18 16 16 14 15 17 14 10 7 2 -0 5 4 357 352 346 341 339 337 335 332 329 327 327 326 322 311
229 226 223 223 227 233 235 232 231 229 227 228 226 226 226 224 225 224 220 214 207 205 204 194 176 176 188 182 168 138 90 101 59 23 37 56 60 64 63 54 47 42 32 30 32 21 3 358 359 358 357 1 4 4 4 4 2 1 1 3 4 4 5 8 11 10 9 6 -0 355 349 345 342 339 337 335 333 331 328 326 326 326 325 323 321
231 230 229 229 228 233 239 239 241 239 234 234 234 235 236 235 236 236 235 234 229 226 225 221 211 205 206 203 203 206 199 195 186 62 102 87 73 67 61 49 38 34 25 17 20 18 4 354 352 353 354 356 359 359 357 357 355 352 351 352 350 347 347 348 349 351 354 356 354 351 346 342 339 337 336 335 333 330 326 324 325 326 326 324 321
237 235 235 235 233 236 240 240 242 243 238 235 238 241 244 245 247 248 248 247 245 242 240 238 232 228 227 224 222 225 220 213 210 208 206 195 134 69 56 38 27 24 19 13 12 11 3 353 350 352 353 353 356 356 351 349 349 349 350 349 345 342 341 341 339 339 340 339 338 338 336 336 334 333 333 333 333 331 328 325 325 327 327 323 320
243 239 237 239 241 243 247 249 248 246 241 238 242 249 252 253 254 255 256 255 255 254 252 251 247 242 242 240 236 235 233 225 221 229 239 234 237 284 346 1 7 9 9 7 4 3 1 356 351 350 349 350 353 356 354 350 347 344 343 343 343 341 337 335 336 338 337 333 329 326 322 320 319 320 322 324 325 325 323 322 323 326 325 319 315
239 233 235 241 245 246 251 257 259 256 249 242 244 252 256 256 257 258 258 258 260 258 256 256 254 251 250 249 245 242 242 239 232 232 238 242 248 262 279 300 335 354 357 359 358 354 354 356 353 349 348 349 350 352 354 354 351 347 343 338 336 338 337 335 335 337 339 336 331 329 325 321 318 314 313 313 314 314 313 313 314 317 319 316 313
237 229 232 239 243 247 256 263 263 262 256 248 249 255 257 257 258 258 258 259 260 261 261 261 259 256 254 252 248 245 246 248 245 241 238 238 242 253 258 265 305 330 334 342 350 348 348 352 351 348 347 347 348 348 349 350 351 351 350 344 336 335 337 337 335 335 337 336 333 331 330 327 323 320 315 311 309 308 306 307 307 308 310 311 310
241 236 237 240 243 250 261 264 260 257 254 251 255 261 261 260 259 258 258 258 259 262 265 265 263 259 256 252 248 246 244 245 247 247 245 238 232 233 239 250 268 284 298 318 337 341 342 345 345 344 341 340 343 345 345 349 351 349 351 349 338 333 333 333 333 335 335 334 333 330 328 327 325 324 322 318 313 310 307 305 304 304 304 304 305
248 249 247 246 248 251 256 257 255 254 255 257 260 263 263 263 261 261 261 258 258 262 266 265 262 260 258 255 251 247 244 242 242 246 249 245 238 233 231 234 245 254 262 287 318 324 327 334 336 335 333 334 340 344 344 349 351 342 339 339 334 331 331 328 329 333 334 331 330 328 327 329 328 327 327 325 323 321 316 311 308 305 302 301 301
254 256 251 249 248 246 247 249 252 256 261 264 267 268 267 268 268 267 267 265 266 269 271 267 263 261 260 259 255 250 246 243 240 242 245 242 238 238 238 235 241 258 267 272 282 290 302 315 321 325 325 326 333 340 339 339 338 332 332 334 331 330 332 330 328 329 330 329 328 326 323 326 329 327 327 328 328 328 326 322 318 312 306 302 300
213 219 226 230 231 234 241 249 257 267 273 275 278 277 274 273 273 272 272 273 274 275 274 272 270 269 266 263 260 255 248 242 238 238 237 232 229 231 233 233 248 273 286 286 281 275 278 287 296 305 311 316 323 329 328 326 327 327 328 330 329 328 332 331 322 319 321 325 326 322 318 321 325 324 323 326 326 328 330 328 323 316 309 305 304
88 92 101 121 159 197 244 273 287 293 293 293 292 287 282 278 274 273 273 274 275 276 276 276 276 275 271 267 263 257 249 242 237 232 227 223 224 226 227 234 255 276 289 294 290 283 278 272 276 287 296 305 313 317 317 318 320 321 322 323 324 324 322 316 306 304 311 319 321 317 313 315 320 319 317 319 321 325 329 328 323 319 314 311 310
75 74 74 72 66 49 24 358 340 331 323 318 308 296 290 285 279 275 273 273 275 277 279 280 278 275 272 268 264 257 247 239 232 226 221 219 219 220 228 244 264 280 290 294 292 286 280 275 279 291 299 302 306 308 310 312 313 315 316 315 316 316 311 306 301 301 307 314 316 311 306 308 313 314 311 312 316 322 326 325 325 327 321 316 313
57 57 53 38 23 6 352 344 340 337 335 331 326 316 303 289 282 279 276 275 276 278 281 282 280 278 274 268 263 254 242 232 224 217 213 213 213 219 238 256 268 278 284 285 283 279 280 288 294 299 301 301 303 305 305 307 309 310 311 311 310 309 304 302 301 302 306 310 312 306 298 302 311 311 306 309 315 318 321 319 321 323 316 310 310
21 19 9 354 348 343 339 337 334 333 334 331 329 329 321 304 290 282 277 273 271 273 278 279 279 277 272 268 261 249 235 222 211 206 207 211 217 227 239 252 267 277 277 273 273 277 287 296 298 299 300 300 301 302 301 304 306 307 307 306 305 304 303 302 302 303 305 309 312 304 291 298 308 306 304 312 317 315 315 315 314 308 296 297 306
348 346 341 336 333 332 330 329 327 327 329 328 328 328 323 315 304 291 280 271 264 264 267 270 273 272 268 264 254 237 220 205 198 200 207 212 216 223 236 258 273 274 271 270 274 281 289 294 295 295 296 296 298 299 300 302 304 306 306 304 305 308 308 306 305 307 311 315 316 304 289 293 305 304 306 315 317 311 312 314 311 295 284 292 306
327 323 322 320 319 320 322 323 322 322 323 326 330 330 326 320 312 299 283 269 261 258 259 263 267 266 259 248 233 214 200 193 193 197 203 211 220 236 256 266 263 260 263 272 280 286 290 292 293 294 295 295 296 297 299 301 302 306 306 306 312 316 312 308 306 307 312 316 323 318 295 293 307 310 308 313 313 309 311 315 307 285 279 294 309
316 310 308 310 312 316 321 322 321 321 323 327 331 333 332 325 316 303 280 259 247 241 239 236 235 231 209 197 199 197 190 187 190 196 207 224 240 252 257 254 252 257 265 274 282 286 288 288 289 290 292 294 295 295 298 300 300 300 300 302 310 309 303 299 297 302 308 312 328 338 312 303 312 314 308 308 308 307 309 310 301 284 287 302 310
326 314 305 303 305 306 310 312 314 319 324 329 332 334 334 327 318 304 270 241 218 200 193 182 172 171 168 168 176 187 190 190 195 208 225 242 249 248 251 258 265 272 278 283 286 287 288 288 289 291 293 295 297 299 301 301 299 297 293 294 300 299 296 293 292 299 306 299 311 323 313 304 309 311 309 311 308 305 309 305 296 295 300 304 307